Princeton, MN

1:04 PM CST on December 16, 2017 (GMT -0600)
Princeton Municipal

Weather History for KPNM - November, 2012

Change the Weather History Date:

Tuesday, November 27, 2012

  Actual Average Record
Temperature  
Mean Temperature 24 °F -  
Max Temperature 35 °F 33 °F 59 °F (1998)
Min Temperature 12 °F 18 °F -5 °F (1996)
Degree Days  
Heating Degree Days 42    
Moisture  
Dew Point 15 °F    
Average Humidity 73    
Maximum Humidity 93    
Minimum Humidity 60    
Precipitation  
Precipitation 0.00 in - - ()
Sea Level Pressure  
Sea Level Pressure 30.16 in    
Wind  
Wind Speed 6 mph (SW)    
Max Wind Speed 14 mph    
Max Gust Speed 18 mph    
Visibility 10 miles    
Events      
Averages and records for this station are not official NWS values.
T = Trace of Precipitation, MM = Missing Value Source: NWS Daily Summary

Daily Weather History Graph

Daily Weather History Graph

Search for Another Location

Airport or City:

Trip Planner

Search our weather history database for the weather conditions in past years. The results will help you decide how hot, cold, wet, or windy it might be!

Date:

Astronomy

Nov. 27, 2012 Rise Set
Actual Time 7:30 AM CST 4:34 PM CST
Civil Twilight 6:56 AM CST 5:07 PM CST
Nautical Twilight 6:20 AM CST 5:44 PM CST
Astronomical Twilight 5:44 AM CST 6:19 PM CST
Moon 4:06 PM CST (11/27) 6:34 AM CST (11/27)
Length of Visible Light 10h 10m
Length of Day
9h 03m
Waxing Gibbous, 99% of the Moon is Illuminated
Nov 27
Waxing Gibbous
Nov 28
Full
Dec 6
Last Quarter
Dec 13
New
Dec 19
First Quarter

Hourly Weather History & Observations

Time (CST) Temp. Windchill Dew Point Humidity Pressure Visibility Wind Dir Wind Speed Gust Speed Precip Events Conditions
12:11 AM 12.2 °F 4.3 °F 6.8 °F 79% 30.29 in 10.0 mi South 4.6 mph - N/A   Scattered Clouds
12:31 AM 14.0 °F 5.1 °F 8.6 °F 79% 30.28 in 10.0 mi South 5.8 mph - N/A   Mostly Cloudy
12:52 AM 14.0 °F 3.9 °F 6.8 °F 73% 30.27 in 10.0 mi South 6.9 mph - N/A   Scattered Clouds
1:11 AM 14.0 °F 6.5 °F 6.8 °F 73% 30.27 in 10.0 mi South 4.6 mph - N/A   Clear
1:51 AM 15.8 °F 7.2 °F 8.6 °F 73% 30.26 in 10.0 mi South 5.8 mph - N/A   Mostly Cloudy
2:11 AM 15.8 °F 6.1 °F 8.6 °F 73% 30.25 in 10.0 mi South 6.9 mph - N/A   Scattered Clouds
2:31 AM 15.8 °F 6.1 °F 8.6 °F 73% 30.25 in 10.0 mi South 6.9 mph - N/A   Clear
2:51 AM 15.8 °F 6.1 °F 8.6 °F 73% 30.24 in 10.0 mi South 6.9 mph - N/A   Clear
3:11 AM 15.8 °F 5.1 °F 8.6 °F 73% 30.24 in 10.0 mi South 8.1 mph - N/A   Scattered Clouds
3:31 AM 17.6 °F 8.2 °F 8.6 °F 68% 30.23 in 10.0 mi SSW 6.9 mph - N/A   Clear
3:51 AM 17.6 °F 9.3 °F 8.6 °F 68% 30.22 in 10.0 mi South 5.8 mph - N/A   Clear
4:11 AM 17.6 °F 7.3 °F 8.6 °F 68% 30.21 in 10.0 mi South 8.1 mph - N/A   Clear
4:31 AM 17.6 °F 7.3 °F 10.4 °F 73% 30.21 in 10.0 mi South 8.1 mph - N/A   Clear
4:51 AM 17.6 °F 9.3 °F 10.4 °F 73% 30.21 in 10.0 mi South 5.8 mph - N/A   Clear
5:11 AM 17.6 °F 8.2 °F 10.4 °F 73% 30.20 in 10.0 mi South 6.9 mph - N/A   Clear
5:31 AM 17.6 °F 7.3 °F 10.4 °F 73% 30.19 in 10.0 mi South 8.1 mph - N/A   Clear
5:51 AM 17.6 °F 8.2 °F 10.4 °F 73% 30.19 in 10.0 mi South 6.9 mph - N/A   Clear
6:31 AM 17.6 °F 7.3 °F 10.4 °F 73% 30.18 in 10.0 mi South 8.1 mph - N/A   Clear
6:52 AM 17.6 °F 7.3 °F 10.4 °F 73% 30.17 in 10.0 mi South 8.1 mph - N/A   Clear
7:11 AM 15.8 °F 7.2 °F 10.4 °F 79% 30.17 in 10.0 mi South 5.8 mph - N/A   Clear
7:31 AM 15.8 °F 7.2 °F 8.6 °F 73% 30.16 in 10.0 mi South 5.8 mph - N/A   Clear
7:52 AM 15.8 °F 5.1 °F 8.6 °F 73% 30.16 in 10.0 mi South 8.1 mph - N/A   Clear
8:11 AM 15.8 °F 6.1 °F 8.6 °F 73% 30.16 in 10.0 mi South 6.9 mph - N/A   Clear
8:31 AM 17.6 °F 8.2 °F 10.4 °F 73% 30.15 in 10.0 mi South 6.9 mph - N/A   Clear
8:52 AM 17.6 °F 8.2 °F 10.4 °F 73% 30.14 in 10.0 mi South 6.9 mph - N/A   Scattered Clouds
9:31 AM 21.2 °F 14.9 °F 12.2 °F 68% 30.14 in 10.0 mi South 4.6 mph - N/A   Overcast
9:52 AM 21.2 °F 14.9 °F 12.2 °F 68% 30.14 in 10.0 mi SSW 4.6 mph - N/A   Overcast
10:11 AM 21.2 °F 12.6 °F 14.0 °F 74% 30.13 in 10.0 mi South 6.9 mph - N/A   Overcast
10:31 AM 23.0 °F 14.7 °F 15.8 °F 74% 30.13 in 10.0 mi SSW 6.9 mph - N/A   Overcast
10:52 AM 24.8 °F 17.9 °F 15.8 °F 69% 30.13 in 10.0 mi SSW 5.8 mph - N/A   Overcast
11:11 AM 24.8 °F 17.9 °F 15.8 °F 69% 30.12 in 10.0 mi SSW 5.8 mph - N/A   Overcast
11:31 AM 26.6 °F 19.1 °F 17.6 °F 69% 30.11 in 10.0 mi South 6.9 mph - N/A   Overcast
11:52 AM 26.6 °F 17.5 °F 17.6 °F 69% 30.10 in 10.0 mi South 9.2 mph - N/A   Mostly Cloudy
12:11 PM 28.4 °F 19.1 °F 17.6 °F 64% 30.09 in 10.0 mi South 10.4 mph - N/A   Scattered Clouds
12:31 PM 28.4 °F 20.4 °F 19.4 °F 69% 30.08 in 10.0 mi South 8.1 mph - N/A   Scattered Clouds
12:52 PM 30.2 °F 21.9 °F 19.4 °F 64% 30.08 in 10.0 mi South 9.2 mph - N/A   Scattered Clouds
1:11 PM 30.2 °F 24.3 °F 19.4 °F 64% 30.08 in 10.0 mi South 5.8 mph - N/A   Scattered Clouds
1:31 PM 33.8 °F 27.0 °F 21.2 °F 60% 30.07 in 10.0 mi SSW 8.1 mph - N/A   Clear
1:51 PM 33.8 °F 26.4 °F 21.2 °F 60% 30.07 in 10.0 mi SSW 9.2 mph - N/A   Clear
2:11 PM 33.8 °F 29.6 °F 21.2 °F 60% 30.07 in 10.0 mi SW 4.6 mph - N/A   Clear
2:32 PM 33.8 °F 29.6 °F 21.2 °F 60% 30.07 in 10.0 mi WSW 4.6 mph - N/A   Scattered Clouds
2:51 PM 35.6 °F 30.7 °F 23.0 °F 60% 30.07 in 10.0 mi WSW 5.8 mph - N/A   Scattered Clouds
3:11 PM 35.6 °F 30.7 °F 23.0 °F 60% 30.08 in 10.0 mi West 5.8 mph - N/A   Clear
3:51 PM 33.8 °F 29.6 °F 23.0 °F 65% 30.09 in 10.0 mi WNW 4.6 mph - N/A   Overcast
4:11 PM 33.8 °F 29.6 °F 23.0 °F 65% 30.09 in 10.0 mi WNW 4.6 mph - N/A   Overcast
4:32 PM 32.0 °F 27.5 °F 23.0 °F 69% 30.10 in 10.0 mi NW 4.6 mph - N/A   Overcast
4:51 PM 32.0 °F 27.5 °F 23.0 °F 69% 30.10 in 10.0 mi NW 4.6 mph - N/A   Overcast
5:11 PM 30.2 °F - 21.2 °F 69% 30.10 in 10.0 mi Calm Calm - N/A   Mostly Cloudy
5:32 PM 28.4 °F 24.6 °F 21.2 °F 74% 30.11 in 4.0 mi NW 3.5 mph - N/A   Haze
5:51 PM 26.6 °F - 21.2 °F 80% 30.12 in 10.0 mi Calm Calm - N/A   Clear
6:11 PM 26.6 °F - 21.2 °F 80% 30.12 in 10.0 mi Calm Calm - N/A   Clear
6:51 PM 21.2 °F - 19.4 °F 93% 30.13 in 10.0 mi Calm Calm - N/A   Clear
7:11 PM 19.4 °F 12.8 °F 17.6 °F 93% 30.13 in 10.0 mi West 4.6 mph - N/A   Clear
7:31 PM 21.2 °F 12.6 °F 19.4 °F 93% 30.15 in 10.0 mi West 6.9 mph - N/A   Clear
7:51 PM 23.0 °F 17.0 °F 19.4 °F 86% 30.15 in 10.0 mi West 4.6 mph - N/A   Clear
8:11 PM 21.2 °F 14.9 °F 17.6 °F 86% 30.16 in 10.0 mi West 4.6 mph - N/A   Clear
8:31 PM 21.2 °F 14.9 °F 17.6 °F 86% 30.16 in 10.0 mi West 4.6 mph - N/A   Clear
8:51 PM 21.2 °F 14.9 °F 17.6 °F 86% 30.17 in 10.0 mi West 4.6 mph - N/A   Clear
9:11 PM 19.4 °F 11.5 °F 17.6 °F 93% 30.18 in 10.0 mi West 5.8 mph - N/A   Clear
9:31 PM 21.2 °F 13.6 °F 17.6 °F 86% 30.19 in 10.0 mi West 5.8 mph - N/A   Mostly Cloudy
9:51 PM 23.0 °F 15.8 °F 19.4 °F 86% 30.19 in 10.0 mi WNW 5.8 mph - N/A   Overcast
10:11 PM 24.8 °F 17.9 °F 19.4 °F 80% 30.19 in 10.0 mi WNW 5.8 mph - N/A   Overcast
10:32 PM 26.6 °F 18.2 °F 21.2 °F 80% 30.20 in 10.0 mi NW 8.1 mph - N/A   Overcast
10:51 PM 26.6 °F 16.2 °F 19.4 °F 74% 30.20 in 10.0 mi WNW 11.5 mph 18.4 mph N/A   Overcast
11:11 PM 26.6 °F 15.2 °F 19.4 °F 74% 30.21 in 10.0 mi NW 13.8 mph 17.3 mph N/A   Overcast
11:51 PM 26.6 °F 15.7 °F 19.4 °F 74% 30.23 in 10.0 mi WNW 12.7 mph 17.3 mph N/A   Overcast